Time,TemperatureF,DewpointF,PressureIn,WindDirection,WindDirectionDegrees,WindSpeedMPH,WindSpeedGustMPH,Humidity,HourlyPrecipIn,Conditions,Clouds,dailyrainin,SoftwareType,DateUTC
2013-02-10 00:08:00,14.2,7.2,30.10,North,0,7.8,-999.0,73,-99.99,,,0.00,Acu-Link.com,2013-02-10 05:08:00,
2013-02-10 00:24:00,14.2,7.2,30.11,North,0,6.3,-999.0,73,-99.99,,,0.00,Acu-Link.com,2013-02-10 05:24:00,
2013-02-10 00:39:00,14.0,7.0,30.11,NNE,22,4.7,-999.0,73,-99.99,,,0.00,Acu-Link.com,2013-02-10 05:39:00,
2013-02-10 00:54:00,14.0,6.7,30.11,South,180,6.3,-999.0,72,-99.99,,,0.00,Acu-Link.com,2013-02-10 05:54:00,
2013-02-10 01:10:00,14.0,6.7,30.12,South,180,8.3,-999.0,72,-99.99,,,0.00,Acu-Link.com,2013-02-10 06:10:00,
2013-02-10 01:25:00,14.0,6.4,30.12,NNW,337,6.8,-999.0,71,-99.99,,,0.00,Acu-Link.com,2013-02-10 06:25:00,
2013-02-10 01:41:00,14.0,6.4,30.13,WNW,292,4.2,-999.0,71,-99.99,,,0.00,Acu-Link.com,2013-02-10 06:41:00,
2013-02-10 01:56:00,13.8,6.8,30.13,WSW,247,5.3,-999.0,73,-99.99,,,0.00,Acu-Link.com,2013-02-10 06:56:00,
2013-02-10 02:11:00,14.0,6.4,30.14,NNW,337,2.7,-999.0,71,-99.99,,,0.00,Acu-Link.com,2013-02-10 07:11:00,
2013-02-10 02:27:00,13.8,6.2,30.14,NW,315,7.3,-999.0,71,-99.99,,,0.00,Acu-Link.com,2013-02-10 07:27:00,
2013-02-10 02:42:00,13.8,7.1,30.15,NNW,337,5.3,-999.0,74,-99.99,,,0.00,Acu-Link.com,2013-02-10 07:42:00,
2013-02-10 02:58:00,13.6,6.6,30.15,WNW,292,6.3,-999.0,73,-99.99,,,0.00,Acu-Link.com,2013-02-10 07:58:00,
2013-02-10 03:13:00,13.8,6.5,30.15,NNE,22,3.7,-999.0,72,-99.99,,,0.00,Acu-Link.com,2013-02-10 08:13:00,
2013-02-10 03:28:00,14.0,6.4,30.15,WNW,292,5.8,-999.0,71,-99.99,,,0.00,Acu-Link.com,2013-02-10 08:28:00,
2013-02-10 03:44:00,13.8,6.5,30.16,West,270,5.8,-999.0,72,-99.99,,,0.00,Acu-Link.com,2013-02-10 08:44:00,
2013-02-10 03:59:00,13.6,6.6,30.17,North,0,5.3,-999.0,73,-99.99,,,0.00,Acu-Link.com,2013-02-10 08:59:00,
2013-02-10 04:19:00,13.6,6.0,30.18,NNE,22,4.7,-999.0,71,-99.99,,,0.00,Acu-Link.com,2013-02-10 09:19:00,
2013-02-10 04:34:00,13.1,5.8,30.19,NW,315,0.0,-999.0,72,-99.99,,,0.00,Acu-Link.com,2013-02-10 09:34:00,
2013-02-10 04:49:00,12.7,5.4,30.20,NNW,337,0.0,-999.0,72,-99.99,,,0.00,Acu-Link.com,2013-02-10 09:49:00,
2013-02-10 05:04:00,12.4,4.8,30.20,NW,315,0.0,-999.0,71,-99.99,,,0.00,Acu-Link.com,2013-02-10 10:04:00,
2013-02-10 05:20:00,11.8,5.4,30.22,NW,315,0.0,-999.0,75,-99.99,,,0.00,Acu-Link.com,2013-02-10 10:20:00,
2013-02-10 05:35:00,11.5,4.8,30.22,North,0,0.0,-999.0,74,-99.99,,,0.00,Acu-Link.com,2013-02-10 10:35:00,
2013-02-10 05:50:00,11.1,4.5,30.23,NNE,22,0.0,-999.0,74,-99.99,,,0.00,Acu-Link.com,2013-02-10 10:50:00,
2013-02-10 06:06:00,10.4,4.4,30.24,WNW,292,0.0,-999.0,76,-99.99,,,0.00,Acu-Link.com,2013-02-10 11:06:00,
2013-02-10 06:21:00,10.0,4.8,30.24,NNW,337,0.0,-999.0,79,-99.99,,,0.00,Acu-Link.com,2013-02-10 11:21:00,
2013-02-10 06:37:00,10.0,3.7,30.25,NW,315,0.0,-999.0,75,-99.99,,,0.00,Acu-Link.com,2013-02-10 11:37:00,
2013-02-10 06:52:00,9.7,4.0,30.26,NNE,22,0.0,-999.0,77,-99.99,,,0.00,Acu-Link.com,2013-02-10 11:52:00,
2013-02-10 07:07:00,10.2,3.9,30.26,ESE,112,0.0,-999.0,75,-99.99,,,0.00,Acu-Link.com,2013-02-10 12:07:00,
2013-02-10 07:23:00,11.1,5.0,30.26,NE,45,0.0,-999.0,76,-99.99,,,0.00,Acu-Link.com,2013-02-10 12:23:00,
2013-02-10 07:39:00,12.7,5.7,30.28,West,270,0.0,-999.0,73,-99.99,,,0.00,Acu-Link.com,2013-02-10 12:39:00,
2013-02-10 07:54:00,14.5,7.5,30.29,NNE,22,0.0,-999.0,73,-99.99,,,0.00,Acu-Link.com,2013-02-10 12:54:00,
2013-02-10 08:09:00,17.6,9.8,30.29,NNW,337,0.0,-999.0,71,-99.99,,,0.00,Acu-Link.com,2013-02-10 13:09:00,
2013-02-10 08:24:00,19.8,9.3,30.29,NNW,337,0.0,-999.0,63,-99.99,,,0.00,Acu-Link.com,2013-02-10 13:24:00,
2013-02-10 08:40:00,21.7,11.1,30.29,North,0,0.0,-999.0,63,-99.99,,,0.00,Acu-Link.com,2013-02-10 13:40:00,
2013-02-10 08:55:00,23.9,13.5,30.29,NW,315,0.0,-999.0,64,-99.99,,,0.00,Acu-Link.com,2013-02-10 13:55:00,
2013-02-10 09:10:00,24.8,14.0,30.30,NE,45,5.3,-999.0,63,-99.99,,,0.00,Acu-Link.com,2013-02-10 14:10:00,
2013-02-10 09:26:00,25.5,12.4,30.30,SSE,157,4.7,-999.0,57,-99.99,,,0.00,Acu-Link.com,2013-02-10 14:26:00,
2013-02-10 09:41:00,27.1,13.5,30.31,North,0,2.2,-999.0,56,-99.99,,,0.00,Acu-Link.com,2013-02-10 14:41:00,
2013-02-10 09:56:00,28.9,15.2,30.32,NNW,337,3.7,-999.0,56,-99.99,,,0.00,Acu-Link.com,2013-02-10 14:56:00,
2013-02-10 10:12:00,30.4,13.1,30.31,NNW,337,3.7,-999.0,48,-99.99,,,0.00,Acu-Link.com,2013-02-10 15:12:00,
2013-02-10 10:27:00,31.3,16.6,30.31,West,270,4.7,-999.0,54,-99.99,,,0.00,Acu-Link.com,2013-02-10 15:27:00,
2013-02-10 10:42:00,32.4,15.4,30.31,North,0,2.2,-999.0,49,-99.99,,,0.00,Acu-Link.com,2013-02-10 15:42:00,
2013-02-10 10:57:00,33.8,19.8,30.30,NNW,337,3.7,-999.0,56,-99.99,,,0.00,Acu-Link.com,2013-02-10 15:57:00,
2013-02-10 11:13:00,34.9,19.5,30.30,SW,225,0.0,-999.0,53,-99.99,,,0.00,Acu-Link.com,2013-02-10 16:13:00,
2013-02-10 11:28:00,35.1,16.9,30.31,WNW,292,0.0,-999.0,47,-99.99,,,0.00,Acu-Link.com,2013-02-10 16:28:00,
2013-02-10 11:45:00,36.3,17.0,30.29,WNW,292,0.0,-999.0,45,-99.99,,,0.00,Acu-Link.com,2013-02-10 16:45:00,
2013-02-10 12:00:00,37.4,20.5,30.29,NNW,337,0.0,-999.0,50,-99.99,,,0.00,Acu-Link.com,2013-02-10 17:00:00,
2013-02-10 12:16:00,38.5,20.5,30.29,ENE,67,0.0,-999.0,48,-99.99,,,0.00,Acu-Link.com,2013-02-10 17:16:00,
2013-02-10 12:32:00,34.0,9.9,30.28,NNW,337,0.0,-999.0,36,-99.99,,,0.00,Acu-Link.com,2013-02-10 17:32:00,
2013-02-10 12:47:00,36.5,18.2,30.28,WNW,292,0.0,-999.0,47,-99.99,,,0.00,Acu-Link.com,2013-02-10 17:47:00,
2013-02-10 13:03:00,34.2,11.9,30.27,North,0,0.0,-999.0,39,-99.99,,,0.00,Acu-Link.com,2013-02-10 18:03:00,
2013-02-10 13:18:00,35.8,12.7,30.26,NE,45,0.0,-999.0,38,-99.99,,,0.00,Acu-Link.com,2013-02-10 18:18:00,
2013-02-10 13:33:00,36.1,13.0,30.25,NNE,22,0.0,-999.0,38,-99.99,,,0.00,Acu-Link.com,2013-02-10 18:33:00,
2013-02-10 14:21:00,32.9,31.6,30.24,NNE,22,0.0,-999.0,95,-99.99,,,0.00,Acu-Link.com,2013-02-10 19:21:00,
2013-02-10 14:36:00,35.1,33.8,30.25,West,270,3.2,-999.0,95,-99.99,,,0.07,Acu-Link.com,2013-02-10 19:36:00,
2013-02-10 14:52:00,36.1,27.3,30.25,SSE,157,2.7,-999.0,70,-99.99,,,0.08,Acu-Link.com,2013-02-10 19:52:00,
2013-02-10 15:22:00,38.8,20.3,30.26,NNE,22,1.7,-999.0,47,-99.99,,,0.09,Acu-Link.com,2013-02-10 20:22:00,
2013-02-10 15:56:00,38.8,20.3,30.26,SSE,157,1.1,-999.0,47,-99.99,,,0.12,Acu-Link.com,2013-02-10 20:56:00,
2013-02-10 16:12:00,39.0,25.9,30.27,SW,225,0.0,-999.0,59,-99.99,,,0.13,Acu-Link.com,2013-02-10 21:12:00,
2013-02-10 17:55:00,27.7,22.1,30.27,NNE,22,0.0,-999.0,79,-99.99,,,0.13,Acu-Link.com,2013-02-10 22:55:00,
2013-02-10 18:12:00,26.6,21.3,30.26,ESE,112,0.0,-999.0,80,-99.99,,,0.13,Acu-Link.com,2013-02-10 23:12:00,
2013-02-10 18:28:00,26.6,20.4,30.26,WSW,247,0.0,-999.0,77,-99.99,,,0.13,Acu-Link.com,2013-02-10 23:28:00,
2013-02-10 18:43:00,26.2,21.5,30.26,West,270,0.0,-999.0,82,-99.99,,,0.13,Acu-Link.com,2013-02-10 23:43:00,
2013-02-10 18:59:00,25.9,21.5,30.26,NW,315,0.0,-999.0,83,-99.99,,,0.13,Acu-Link.com,2013-02-10 23:59:00,
2013-02-10 19:15:00,25.0,20.9,30.27,NW,315,0.0,-999.0,84,-99.99,,,0.13,Acu-Link.com,2013-02-11 00:15:00,
2013-02-10 20:07:00,23.2,20.4,30.26,NW,315,0.0,-999.0,89,-99.99,,,0.13,Acu-Link.com,2013-02-11 01:07:00,
2013-02-10 20:23:00,22.5,19.8,30.27,SW,225,0.0,-999.0,89,-99.99,,,0.13,Acu-Link.com,2013-02-11 01:23:00,
2013-02-10 20:39:00,23.0,20.3,30.26,NW,315,0.0,-999.0,89,-99.99,,,0.13,Acu-Link.com,2013-02-11 01:39:00,
2013-02-10 20:54:00,22.5,20.0,30.27,NNW,337,1.7,-999.0,90,-99.99,,,0.13,Acu-Link.com,2013-02-11 01:54:00,
2013-02-10 21:10:00,21.9,19.4,30.27,SSE,157,1.1,-999.0,90,-99.99,,,0.13,Acu-Link.com,2013-02-11 02:10:00,
2013-02-10 21:26:00,22.8,18.7,30.26,SW,225,2.2,-999.0,84,-99.99,,,0.13,Acu-Link.com,2013-02-11 02:26:00,
2013-02-10 21:41:00,23.9,18.4,30.26,NW,315,0.0,-999.0,79,-99.99,,,0.13,Acu-Link.com,2013-02-11 02:41:00,
2013-02-10 21:57:00,23.0,17.5,30.26,NW,315,1.7,-999.0,79,-99.99,,,0.13,Acu-Link.com,2013-02-11 02:57:00,
2013-02-10 22:12:00,22.8,17.0,30.27,WNW,292,0.0,-999.0,78,-99.99,,,0.13,Acu-Link.com,2013-02-11 03:12:00,
2013-02-10 22:27:00,22.1,16.3,30.27,NNE,22,0.0,-999.0,78,-99.99,,,0.13,Acu-Link.com,2013-02-11 03:27:00,
2013-02-10 22:42:00,21.2,16.0,30.27,NW,315,1.7,-999.0,80,-99.99,,,0.13,Acu-Link.com,2013-02-11 03:42:00,
2013-02-10 22:58:00,21.4,16.2,30.27,SW,225,1.7,-999.0,80,-99.99,,,0.13,Acu-Link.com,2013-02-11 03:58:00,
2013-02-10 23:13:00,21.9,17.0,30.27,NNE,22,0.0,-999.0,81,-99.99,,,0.13,Acu-Link.com,2013-02-11 04:13:00,
2013-02-10 23:28:00,21.7,17.9,30.27,NW,315,0.0,-999.0,85,-99.99,,,0.13,Acu-Link.com,2013-02-11 04:28:00,
2013-02-10 23:44:00,21.0,16.9,30.27,WSW,247,0.0,-999.0,84,-99.99,,,0.13,Acu-Link.com,2013-02-11 04:44:00,